Tracking 27122 objects as of 25-Mar-2023
HD Live streaming from Space Station
objects crossing your sky now

KEPLER-15 (SUDORMRF)

Track KEPLER-15 (SUDORMRF) now!
10-day predictions


NORAD ID: 47461
Int'l Code: 2021-006BA
Perigee: 498.2 km
Apogee: 506.9 km
Inclination: 97.4 °
Period: 94.5 minutes
Semi major axis: 6873 km
RCS: Unknown
Launch date: January 24, 2021
Source: United States (US)
Launch site: ()
Your satellite tracking list
Your tracking list is empty




NASA's NSSDC Master Catalog

Two Line Element Set (TLE):
1 47461U 21006BA  23084.12357944  .00036374  00000-0  15217-2 0  9994
2 47461  97.3960 141.9524 0006362  54.6339 305.5492 15.23467577119805
Source of the keplerian elements: AFSPC